Lid_Strength_Index
14 13 13 12 12 13 15 15 16 14 15 12 8 8 7 7 6 7 6 6 6 5 5 4 4 3 3 3 2 2 2 2 2 2 2 2 2 3 3 3 3 2 1 1
13 12 12 13 12 12 12 13 14 14 14 12 8 8 8 7 7 7 7 6 5 5 5 4 4 3 3 4 4 2 3 3 3 3 3 4 4 3 3 2 2 1 1 1
15 13 13 15 13 12 12 12 12 14 12 10 8 8 8 7 7 7 6 6 5 5 4 4 4 3 4 5 4 4 5 5 5 5 4 4 3 2 2 2 2 2 2 1
15 14 18 14 10 10 11 10 9 9 9 8 8 6 6 6 6 6 6 6 5 5 4 4 3 3 3 3 4 4 4 4 3 3 3 3 2 2 2 2 2 2 2 2
15 15 13 11 10 10 11 12 9 9 9 8 7 7 8 6 5 5 5 5 4 4 3 3 4 3 3 4 3 3 3 4 3 3 3 3 3 2 2 3 3 2 2 3
14 16 18 12 8 7 8 14 8 8 9 9 8 11 9 6 5 5 4 4 4 3 3 4 4 3 4 4 4 4 3 3 2 3 3 3 3 2 4 3 2 3 2 3
15 16 13 10 8 6 13 13 8 7 8 8 9 8 7 6 5 4 4 4 3 3 4 4 3 3 4 4 4 3 3 3 3 3 3 3 3 3 4 4 3 4 1 3
15 17 17 8 8 12 9 8 7 7 7 8 7 6 6 5 5 5 5 4 4 4 4 4 3 4 5 5 5 3 2 2 3 2 2 3 3 3 3 3 4 5 2 2
13 13 9 8 8 6 6 7 7 7 6 6 6 6 5 6 5 5 4 4 4 5 6 6 5 5 6 6 5 4 4 4 3 2 2 3 3 3 3 3 4 2 3 3
11 10 9 7 6 6 6 6 5 5 5 5 6 6 5 5 5 5 4 5 5 6 6 7 7 6 6 6 4 5 5 4 4 3 3 3 3 3 3 4 3 3 3 3
11 9 8 7 6 6 5 5 5 5 5 5 5 6 6 6 5 5 6 7 5 6 6 7 6 6 6 5 5 5 4 5 4 4 3 4 4 4 4 4 3 3 3 4
12 8 8 8 6 5 6 6 5 5 6 5 5 5 5 5 5 5 6 7 6 6 6 5 5 5 5 5 4 6 6 5 4 4 3 4 4 5 7 7 7 9 9 7
8 6 6 5 5 4 5 5 5 5 5 5 4 5 5 5 4 5 6 6 6 6 5 5 5 5 5 5 5 7 6 7 6 5 5 5 4 5 6 7 9 10 10 10
6 6 7 6 6 4 5 4 4 4 4 4 4 4 4 5 4 4 5 5 5 5 5 5 6 6 5 5 6 7 7 7 6 5 5 5 6 7 7 7 8 8 8 9
6 6 6 5 5 5 4 4 5 5 5 5 4 4 4 4 4 4 4 4 4 5 5 4 5 5 5 6 7 7 6 6 6 7 7 8 7 8 8 8 8 9 8 9
5 5 5 6 5 5 5 5 5 5 5 5 5 4 4 4 4 3 3 4 4 5 5 5 5 6 6 5 6 6 6 6 7 9 9 10 9 9 9 9 10 9 9 9
7 7 7 7 6 6 5 5 5 5 5 5 5 4 4 4 4 4 4 3 3 5 4 5 6 6 6 6 7 7 8 9 8 9 10 10 11 11 11 10 11 10 9 10
5 5 5 5 5 5 5 5 4 5 5 4 4 4 4 4 5 4 3 3 4 4 4 5 6 6 6 6 7 8 9 9 9 10 10 11 11 11 10 10 10 10 10 9
4 5 4 4 4 5 5 5 4 4 4 4 4 4 4 4 4 3 3 3 4 5 6 6 4 6 7 6 7 8 9 9 10 10 11 10 12 12 12 12 12 11 10 8
4 4 4 4 4 5 5 4 4 4 4 4 4 4 4 4 3 3 3 4 4 5 5 5 6 6 6 6 7 8 9 9 10 11 12 11 12 12 12 12 11 9 9 9
5 4 4 4 5 4 4 4 4 4 4 3 4 4 4 3 3 3 5 5 6 6 6 5 6 7 7 7 8 9 9 10 11 12 13 13 12 12 11 10 10 10 9 10
4 5 5 4 4 5 4 4 4 4 4 4 3 3 4 4 3 4 4 5 5 5 5 5 6 6 7 7 9 10 10 11 11 12 13 12 11 10 10 10 11 11 10 9
4 5 4 4 5 4 4 4 4 4 4 4 4 3 4 3 4 5 6 5 4 5 5 6 5 5 6 8 9 9 9 10 10 10 10 10 10 10 10 11 9 9 9 8
4 4 4 3 4 4 5 4 4 4 3 3 3 3 3 4 4 3 4 4 5 5 5 5 5 6 6 8 8 8 8 7 8 8 9 9 10 11 10 10 10 10 8 8
4 4 4 4 4 4 4 3 3 4 3 3 3 2 2 2 3 4 3 3 6 5 5 5 5 5 7 7 7 7 7 7 7 8 9 9 10 11 11 11 11 10 11 11
4 5 5 4 4 4 4 4 5 4 3 4 3 4 4 3 4 4 4 4 4 5 5 5 5 6 6 6 6 6 6 6 7 7 8 8 9 10 10 10 10 11 11 11
4 6 5 4 4 4 6 6 5 5 5 4 4 4 4 4 4 5 5 5 5 6 6 5 5 6 6 6 6 6 6 6 7 7 7 8 8 9 9 10 10 10 11 11